Date String (YYYY-MM-DD hh:mm:ss) UTC,Instrument flags,Ambient pressure (hPa),Sample flow (lpm),Bypass flow (lpm),Sample temperature (°C),Ambient temperature (°C),ASC tube jacket temperature (°C),LED temperature (°C),Box temperature (°C),Sample RH (%),Span deviation,Mass concentration (μg/m³),Mass concentration (μg/m³),Mass concentration (μg/m³)
DateTimeUTC,F1_M11,P_M11,Q1_M11,Q2_M11,T1_M11,T2_M11,T3_M11,T4_M11,T5_M11,U1_M11,ZSPAN_M11,X0_M11,X2_M11,X1_M11
2022-06-29 12:00:00,,0829.5,5.00,0.00,29.5,28.1,00.0,38.4,31.4,15.6,0000.0,0010.59,0004.29,0003.72
2022-06-29 12:01:00,,0829.5,4.99,0.00,29.5,28.2,00.0,38.4,31.4,15.6,0000.0,0010.70,0004.28,0003.71
2022-06-29 12:02:00,,0829.5,5.00,0.00,29.6,28.3,00.0,38.4,31.4,15.4,0000.0,0010.62,0004.25,0003.69
2022-06-29 12:03:00,,0829.5,5.00,0.00,29.6,28.4,00.0,38.4,31.5,15.2,0000.0,0009.99,0004.17,0003.65
2022-06-29 12:04:00,,0829.5,5.01,0.00,29.6,28.5,00.0,38.4,31.5,15.4,0000.0,0009.43,0004.08,0003.60
2022-06-29 12:05:00,,0829.5,5.00,0.00,29.6,28.5,00.0,38.4,31.5,15.5,0000.0,0009.42,0004.00,0003.58
2022-06-29 12:06:00,,0829.5,5.00,0.00,29.6,28.6,00.0,38.4,31.6,15.4,0000.0,0009.38,0003.95,0003.54
2022-06-29 12:07:00,,0829.6,5.00,0.00,29.6,28.6,00.0,38.4,31.6,15.6,0000.0,0009.32,0003.95,0003.52
2022-06-29 12:08:00,,0829.5,4.99,0.00,29.7,28.7,00.0,38.4,31.6,15.7,0000.0,0009.43,0003.97,0003.52
2022-06-29 12:09:00,,0829.5,4.99,0.00,29.7,28.7,00.0,38.4,31.6,15.6,0000.0,0009.92,0003.95,0003.50
2022-06-29 12:10:00,,0829.6,4.99,0.00,29.7,28.7,00.0,38.5,31.6,15.5,0000.0,0010.73,0003.95,0003.49
2022-06-29 12:11:00,,0829.5,5.01,0.00,29.7,28.8,00.0,38.5,31.7,15.3,0000.0,0010.26,0003.95,0003.48
2022-06-29 12:12:00,,0829.5,5.00,0.00,29.8,28.8,00.0,38.5,31.7,15.3,0000.0,0010.10,0003.94,0003.46
2022-06-29 12:13:00,,0829.5,4.98,0.00,29.8,28.8,00.0,38.5,31.7,15.3,0000.0,0010.20,0003.95,0003.45
2022-06-29 12:14:00,,0829.5,5.01,0.00,29.8,28.9,00.0,38.5,31.7,15.0,0000.0,0010.31,0003.97,0003.45
2022-06-29 12:15:00,,0829.5,4.99,0.00,29.8,28.9,00.0,38.5,31.7,15.0,0000.0,0009.98,0003.96,0003.44
2022-06-29 12:16:00,,0829.5,5.00,0.00,29.8,28.9,00.0,38.5,31.7,15.2,0000.0,0009.77,0003.97,0003.44
2022-06-29 12:17:00,,0829.6,5.00,0.00,29.8,28.4,00.0,38.5,31.7,15.2,0000.0,0009.72,0003.96,0003.44
2022-06-29 12:18:00,,0829.5,5.00,0.00,29.8,27.8,00.0,38.5,31.5,15.7,0000.0,0010.24,0003.95,0003.44
2022-06-29 12:19:00,,0829.5,5.00,0.00,29.7,27.6,00.0,38.5,31.4,15.4,0000.0,0010.26,0003.91,0003.42
2022-06-29 12:20:00,,0829.5,5.00,0.00,29.7,27.6,00.0,38.5,31.4,15.6,0000.0,0009.50,0003.90,0003.41
2022-06-29 12:21:00,,0829.5,5.00,0.00,29.6,27.7,00.0,38.5,31.4,15.4,0000.0,0008.51,0003.87,0003.41
2022-06-29 12:22:00,,0829.5,5.02,0.00,29.6,27.8,00.0,38.4,31.4,15.3,0000.0,0007.92,0003.88,0003.41
2022-06-29 12:23:00,,0829.5,5.01,0.00,29.6,27.9,00.0,38.4,31.4,15.2,0000.0,0008.03,0003.90,0003.40
2022-06-29 12:24:00,,0829.5,4.99,0.00,29.6,28.1,00.0,38.4,31.4,15.0,0000.0,0007.97,0003.88,0003.39
2022-06-29 12:25:00,,0829.5,4.99,0.00,29.6,28.2,00.0,38.4,31.5,15.2,0000.0,0007.86,0003.85,0003.38
2022-06-29 12:26:00,,0829.5,5.01,0.00,29.6,28.3,00.0,38.4,31.5,15.2,0000.0,0008.07,0003.87,0003.39
2022-06-29 12:27:00,,0829.6,4.99,0.00,29.6,28.3,00.0,38.4,31.5,15.4,0000.0,0008.25,0003.92,0003.40
2022-06-29 12:28:00,,0829.5,5.00,0.00,29.6,28.4,00.0,38.4,31.5,15.6,0000.0,0008.32,0003.95,0003.41
2022-06-29 12:29:00,,0829.6,5.01,0.00,29.7,28.5,00.0,38.4,31.5,15.3,0000.0,0008.09,0003.97,0003.42
2022-06-29 12:30:00,,0829.5,4.99,0.00,29.7,28.6,00.0,38.4,31.6,15.3,0000.0,0007.75,0003.96,0003.42
2022-06-29 12:31:00,,0829.5,5.01,0.00,29.7,28.6,00.0,38.5,31.6,15.2,0000.0,0007.65,0003.94,0003.43
2022-06-29 12:32:00,,0829.5,5.01,0.00,29.7,28.7,00.0,38.5,31.6,15.1,0000.0,0008.13,0003.90,0003.41
2022-06-29 12:33:00,,0829.5,5.00,0.00,29.7,28.7,00.0,38.5,31.7,15.0,0000.0,0008.23,0003.86,0003.39
2022-06-29 12:34:00,,0829.5,5.00,0.00,29.8,28.8,00.0,38.5,31.7,15.0,0000.0,0008.05,0003.83,0003.39
2022-06-29 12:35:00,,0829.5,5.00,0.00,29.8,28.8,00.0,38.5,31.7,15.0,0000.0,0008.05,0003.84,0003.39
2022-06-29 12:36:00,,0829.6,5.01,0.00,29.8,28.8,00.0,38.5,31.7,15.0,0000.0,0008.34,0003.85,0003.40
2022-06-29 12:37:00,,0829.5,4.98,0.00,29.8,28.9,00.0,38.5,31.8,15.0,0000.0,0008.68,0003.83,0003.40
2022-06-29 12:38:00,,0829.5,5.01,0.00,29.8,28.9,00.0,38.6,31.7,15.0,0000.0,0008.95,0003.80,0003.39
2022-06-29 12:39:00,,0829.5,5.01,0.00,29.9,28.7,00.0,38.6,31.7,14.9,0000.0,0008.88,0003.78,0003.38
2022-06-29 12:40:00,,0829.6,5.01,0.00,29.8,27.8,00.0,38.5,31.5,15.2,0000.0,0008.93,0003.81,0003.37
2022-06-29 12:41:00,,0829.6,4.99,0.00,29.7,27.1,00.0,38.4,31.3,16.4,0000.0,0009.02,0003.84,0003.36
2022-06-29 12:42:00,,0829.6,5.00,0.00,29.6,27.0,00.0,38.4,31.2,16.6,0000.0,0009.48,0003.91,0003.37
2022-06-29 12:43:00,,0829.6,5.01,0.00,29.5,27.1,00.0,38.4,31.2,16.2,0000.0,0009.29,0003.97,0003.38
2022-06-29 12:44:00,,0829.7,5.01,0.00,29.5,27.2,00.0,38.4,31.2,16.6,0000.0,0009.11,0004.02,0003.39
2022-06-29 12:45:00,,0829.5,5.00,0.00,29.5,27.4,00.0,38.3,31.2,16.5,0000.0,0009.24,0004.06,0003.40
2022-06-29 12:46:00,,0829.5,4.99,0.00,29.4,27.6,00.0,38.3,31.2,16.3,0000.0,0009.62,0004.08,0003.41
2022-06-29 12:47:00,,0829.6,5.00,0.00,29.4,27.7,00.0,38.3,31.2,16.2,0000.0,0009.62,0004.11,0003.42
2022-06-29 12:48:00,,0829.5,5.01,0.00,29.4,27.9,00.0,38.3,31.3,16.5,0000.0,0009.09,0004.13,0003.43
2022-06-29 12:49:00,,0829.5,5.00,0.00,29.4,28.0,00.0,38.3,31.3,16.5,0000.0,0008.68,0004.16,0003.45
2022-06-29 12:50:00,,0829.5,5.00,0.00,29.5,28.1,00.0,38.3,31.3,16.0,0000.0,0008.70,0004.18,0003.47
2022-06-29 12:51:00,,0829.6,4.99,0.00,29.5,28.2,00.0,38.3,31.4,16.3,0000.0,0008.86,0004.19,0003.50
2022-06-29 12:52:00,,0829.6,5.00,0.00,29.5,28.3,00.0,38.3,31.4,16.0,0000.0,0009.10,0004.17,0003.53
2022-06-29 12:53:00,,0829.6,5.01,0.00,29.5,28.4,00.0,38.3,31.4,15.7,0000.0,0009.63,0004.17,0003.53
2022-06-29 12:54:00,,0829.6,4.99,0.00,29.5,28.4,00.0,38.3,31.4,15.7,0000.0,0010.03,0004.16,0003.54
2022-06-29 12:55:00,,0829.6,5.01,0.00,29.5,28.5,00.0,38.3,31.5,15.6,0000.0,0009.95,0004.15,0003.56
2022-06-29 12:56:00,,0829.6,5.00,0.00,29.6,28.6,00.0,38.3,31.5,15.6,0000.0,0010.63,0004.12,0003.55
2022-06-29 12:57:00,,0829.6,4.98,0.00,29.6,28.6,00.0,38.4,31.5,15.6,0000.0,0010.46,0004.13,0003.57
2022-06-29 12:58:00,,0829.7,5.01,0.00,29.6,28.7,00.0,38.4,31.6,15.6,0000.0,0010.32,0004.12,0003.58
2022-06-29 12:59:00,,0829.5,5.01,0.00,29.6,28.7,00.0,38.4,31.6,15.5,0000.0,0010.39,0004.12,0003.58
